SKYSAT-C12 (43797 NORAD) Tracking and Keplerian Element Data

This shows tracking and keplerian element data for the satellite.

Feedback or suggestion? Click here.




ElementValue
Catalog43797
NameSKYSAT-C12
Epoch Orbit39418
Epoch Day354.0473373
Epoch Year2025
RAAN20.0637
Inclination96.9457
Eccentricity0.0006439
Argument of Perigee89.1849
Mean Anonmoly271.0137
Mean Motion15.42596786
Decay Rate0.00010268
L11 43797U 18099AR 25354.04733730 .00010268 00000+0 23779-3 0 9990
L22 43797 96.9457 20.0637 0006439 89.1849 271.0137 15.42596786394180



Live tracking and technical data element details for SKYSAT-C12 (NORAD 43797). SKYSAT-C12 can be tracked NOW for your location showing map with azimuth and elevation plus other details from your city location.







IsCatalogInMostPopularTable: catalog: 43797, numindb: 381
Update: records affected: 1



GetName: 43797 SKYSAT-C12

Hit Count: updated at: Tue, 20 Jan 2026 18:10:19 GMT